This demonstration page uses our WeatherBlox Daily Observations layout. Learn more.

Left ArrowRight Arrow

41.12389, -100.76542

Hourly Observations for January 18, 2022

Temp ( °F °C ) Dew Point ( °F °C ) Humidity (%) Winds ( mph kmh ) Pressure ( in mb ) Visibility ( mi km ) Precip ( " mm )
12:53 am 00:53 Clear 25 -3.9 19 -7.2 78 78 NW 8 13 29.81 1010 10 16 0.00 0.00
1:53 am 01:53 Clear 26 -3.3 21 -6.1 81 81 NW 9 15 29.78 1009 10 16 0.00 0.00
2:53 am 02:53 Clear 23 -5 19 -7.2 85 85 NW 8 13 29.78 1009 10 16 0.00 0.00
3:53 am 03:53 Clear 25 -3.9 20 -6.7 81 81 NW 9 15 29.76 1008 10 16 0.00 0.00
4:53 am 04:53 Clear 28 -2.2 23 -5 81 81 NW 8 13 29.76 1008 10 16 0.00 0.00
5:53 am 05:53 Clear 25 -3.9 20 -6.7 81 81 NW 8 13 29.78 1008 10 16 0.00 0.00
6:53 am 06:53 Clear 21 -6.1 17 -8.3 85 85 NW 6 9 29.80 1009 10 16 0.00 0.00
7:53 am 07:53 Clear 24 -4.4 20 -6.7 84 84 NW 8 13 29.81 1009 10 16 0.00 0.00
8:53 am 08:53 Sunny 26 -3.3 21 -6.1 81 81 NW 7 11 29.81 1010 10 16 0.00 0.00
9:53 am 09:53 Sunny 36 2.2 29 -1.7 76 76 WNW 8 13 29.80 1009 10 16 0.00 0.00
10:53 am 10:53 Sunny 46 7.8 28 -2.2 50 50 WNW 9 15 29.79 1009 10 16 0.00 0.00
11:53 am 11:53 Sunny 53 11.7 26 -3.3 35 35 WNW 13 20 29.78 1009 10 16 0.00 0.00
12:53 pm 12:53 Sunny 59 15 22 -5.6 24 24 N 12 19 29.76 1008 10 16 0.00 0.00
1:53 pm 13:53 Sunny 60 15.6 24 -4.4 25 25 N 15 24 29.76 1008 10 16 0.00 0.00
2:53 pm 14:53 Sunny 59 15 24 -4.4 26 26 undefined N/A 29.77 1008 10 16 0.00 0.00
3:53 pm 15:53 Sunny 57 13.9 23 -5 27 27 N 12 19 29.80 1009 10 16 0.00 0.00
4:53 pm 16:53 Sunny 52 11.1 25 -3.9 35 35 N 7 11 29.83 1010 10 16 0.00 0.00
5:53 pm 17:53 Clear 47 8.3 25 -3.9 42 42 N 9 15 29.88 1012 10 16 0.00 0.00
6:53 pm 18:53 Clear 43 6.1 26 -3.3 51 51 N 10 17 29.95 1014 10 16 0.00 0.00
7:53 pm 19:53 Clear 39 3.9 28 -2.2 65 65 N 17 28 30.00 1016 10 16 0.00 0.00
8:53 pm 20:53 Clear 36 2.2 26 -3.3 67 67 NNE 20 31 30.05 1018 10 16 0.00 0.00
9:53 pm 21:53 Mostly Clear 32 0 22 -5.6 66 66 N 9 15 30.08 1019 10 16 0.00 0.00
10:53 pm 22:53 Partly Cloudy 30 -1.1 18 -7.8 61 61 N 17 28 30.10 1019 10 16 0.00 0.00
11:53 pm 23:53 Cloudy 28 -2.2 17 -8.3 63 63 N 14 22 30.12 1020 10 16 0.00 0.00

Powered by AerisWeather